Radiation Dose at Monitoring Post of Fukushima Daini Nuclear Power Station
Date,Time,MP-1(microSv/h),MP-2(microSv/h),MP-3(microSv/h),MP-4(microSv/h),MP-5(microSv/h),MP-6(microSv/h),MP-7(microSv/h),Wind Direction,Wind Velocity(m/s),Rain
2015/06/14,00:00,0.525,0.304,0.547,0.494,0.474,0.246,0.218,southwest,1.9,No
2015/06/14,00:10,0.520,0.302,0.553,0.493,0.467,0.246,0.219,southwest,3.8,No
2015/06/14,00:20,0.526,0.304,0.552,0.497,0.472,0.246,0.220,southwest,3.3,No
2015/06/14,00:30,0.522,0.303,0.548,0.492,0.471,0.247,0.217,southwest,2.1,No
2015/06/14,00:40,0.520,0.303,0.553,0.497,0.466,0.247,0.220,southwest,1.9,No
2015/06/14,00:50,0.526,0.305,0.550,0.497,0.474,0.246,0.218,south-southwest,1.5,No
2015/06/14,01:00,0.519,0.302,0.550,0.492,0.469,0.248,0.220,southwest,1.6,No
2015/06/14,01:10,0.526,0.304,0.553,0.497,0.469,0.245,0.219,west-southwest,2.3,No
2015/06/14,01:20,0.522,0.301,0.547,0.494,0.474,0.247,0.220,west-southwest,1.7,No
2015/06/14,01:30,0.521,0.301,0.553,0.494,0.466,0.248,0.218,west,1.4,No
2015/06/14,01:40,0.526,0.304,0.551,0.497,0.473,0.247,0.218,west,1.7,No
2015/06/14,01:50,0.522,0.300,0.547,0.492,0.472,0.247,0.219,-,CALM,No
2015/06/14,02:00,0.523,0.304,0.553,0.498,0.467,0.245,0.218,southeast,0.6,No
2015/06/14,02:10,0.522,0.302,0.548,0.493,0.474,0.247,0.219,-,CALM,No
2015/06/14,02:20,0.519,0.302,0.550,0.494,0.467,0.247,0.217,south-southwest,0.7,No
2015/06/14,02:30,0.525,0.302,0.553,0.498,0.471,0.245,0.218,-,CALM,No
2015/06/14,02:40,0.523,0.302,0.546,0.491,0.470,0.246,0.218,south-southeast,0.5,No
2015/06/14,02:50,0.523,0.303,0.552,0.498,0.468,0.245,0.218,southeast,1.0,No
2015/06/14,03:00,0.527,0.302,0.550,0.494,0.472,0.247,0.219,southeast,0.9,No
2015/06/14,03:10,0.519,0.304,0.548,0.494,0.470,0.246,0.218,-,CALM,No
2015/06/14,03:20,0.526,0.305,0.554,0.497,0.472,0.248,0.220,-,CALM,No
2015/06/14,03:30,0.524,0.302,0.550,0.491,0.471,0.246,0.217,-,CALM,No
2015/06/14,03:40,0.521,0.303,0.551,0.497,0.467,0.246,0.219,-,CALM,No
2015/06/14,03:50,0.525,0.302,0.554,0.494,0.473,0.246,0.217,east-southeast,0.7,Yes
2015/06/14,04:00,0.519,0.303,0.545,0.493,0.469,0.245,0.218,-,CALM,No
2015/06/14,04:10,0.525,0.304,0.553,0.496,0.471,0.246,0.218,-,CALM,Yes
2015/06/14,04:20,0.524,0.302,0.551,0.492,0.473,0.246,0.218,-,CALM,Yes
2015/06/14,04:30,0.522,0.304,0.550,0.498,0.467,0.245,0.219,south-southeast,0.7,Yes
2015/06/14,04:40,0.526,0.303,0.554,0.494,0.474,0.247,0.218,-,CALM,Yes
2015/06/14,04:50,0.523,0.307,0.549,0.496,0.469,0.246,0.220,east-southeast,1.8,Yes
2015/06/14,05:00,0.529,0.305,0.556,0.499,0.473,0.248,0.219,north-northwest,1.4,Yes
2015/06/14,05:10,0.525,0.306,0.550,0.495,0.472,0.247,0.221,west-southwest,0.9,No
2015/06/14,05:20,0.526,0.304,0.553,0.497,0.470,0.249,0.219,southwest,1.6,No
2015/06/14,05:30,0.528,0.306,0.551,0.492,0.474,0.247,0.220,southwest,1.4,No
2015/06/14,05:40,0.521,0.306,0.548,0.498,0.466,0.248,0.219,west-southwest,1.5,No
2015/06/14,05:50,0.527,0.303,0.554,0.494,0.472,0.248,0.219,southwest,1.2,No
2015/06/14,06:00,0.520,0.305,0.545,0.494,0.472,0.245,0.220,south-southwest,2.0,No
2015/06/14,06:10,0.523,0.302,0.550,0.498,0.468,0.248,0.219,south,2.4,No
2015/06/14,06:20,0.524,0.302,0.551,0.492,0.474,0.246,0.222,south,2.6,No
2015/06/14,06:30,0.518,0.304,0.545,0.495,0.471,0.246,0.217,south,3.9,No
2015/06/14,06:40,0.523,0.300,0.553,0.497,0.467,0.246,0.220,south,4.3,No
2015/06/14,06:50,0.522,0.301,0.550,0.490,0.471,0.243,0.218,south,4.4,No
2015/06/14,07:00,0.517,0.303,0.544,0.494,0.469,0.246,0.216,south-southwest,5.0,Yes
2015/06/14,07:10,0.525,0.301,0.551,0.497,0.464,0.246,0.218,south-southwest,3.9,Yes
2015/06/14,07:20,0.522,0.298,0.548,0.489,0.471,0.245,0.219,south-southwest,4.1,No
2015/06/14,07:30,0.517,0.300,0.542,0.489,0.470,0.246,0.215,south-southwest,3.1,No
2015/06/14,07:40,0.522,0.303,0.548,0.497,0.466,0.245,0.218,southwest,2.5,No
2015/06/14,07:50,0.521,0.300,0.548,0.492,0.463,0.245,0.217,north,5.4,No
2015/06/14,08:00,0.517,0.299,0.546,0.488,0.471,0.245,0.215,north,6.4,No
2015/06/14,08:10,0.523,0.302,0.545,0.494,0.471,0.245,0.218,north,5.9,No
2015/06/14,08:20,0.522,0.299,0.552,0.494,0.464,0.244,0.218,north,5.8,No
2015/06/14,08:30,0.517,0.300,0.544,0.486,0.468,0.243,0.216,north,5.3,No
2015/06/14,08:40,0.525,0.302,0.546,0.494,0.472,0.243,0.215,north,5.6,No
2015/06/14,08:50,0.519,0.297,0.551,0.493,0.465,0.244,0.216,north,4.4,No
2015/06/14,09:00,0.521,0.300,0.547,0.488,0.466,0.243,0.215,north,5.2,No
2015/06/14,09:10,0.525,0.300,0.544,0.493,0.473,0.244,0.216,north,4.8,No
2015/06/14,09:20,0.519,0.299,0.552,0.493,0.466,0.244,0.218,north,4.7,No
2015/06/14,09:30,0.522,0.302,0.547,0.491,0.463,0.244,0.217,north,3.7,No
2015/06/14,09:40,0.524,0.302,0.544,0.492,0.472,0.244,0.215,north,4.0,No
2015/06/14,09:50,0.518,0.298,0.552,0.494,0.468,0.244,0.217,north,2.8,No
2015/06/14,10:00,0.519,0.299,0.546,0.490,0.465,0.244,0.217,north-northeast,2.8,No
2015/06/14,10:10,0.526,0.302,0.542,0.486,0.462,0.245,0.215,north-northwest,2.1,No
2015/06/14,10:20,0.521,0.301,0.546,0.493,0.469,0.244,0.214,north,1.6,No
2015/06/14,10:30,0.516,0.298,0.548,0.494,0.469,0.244,0.215,north,1.1,No
2015/06/14,10:40,0.523,0.298,0.545,0.492,0.466,0.244,0.218,north-northwest,1.0,No
2015/06/14,10:50,0.522,0.301,0.542,0.488,0.462,0.243,0.217,north-northwest,1.7,No
2015/06/14,11:00,0.518,0.301,0.551,0.490,0.469,0.245,0.215,north,1.2,No
2015/06/14,11:10,0.520,0.299,0.550,0.494,0.469,0.245,0.216,north-northwest,0.8,No
2015/06/14,11:20,0.524,0.301,0.544,0.493,0.467,0.243,0.217,west-northwest,0.6,No
2015/06/14,11:30,0.519,0.303,0.543,0.489,0.463,0.244,0.218,northwest,0.6,No
2015/06/14,11:40,0.519,0.300,0.548,0.488,0.463,0.243,0.216,-,CALM,No
2015/06/14,11:50,0.526,0.298,0.547,0.496,0.465,0.244,0.216,southeast,2.2,No
2015/06/14,12:00,0.522,0.301,0.546,0.495,0.472,0.243,0.217,southeast,3.3,No
2015/06/14,12:10,0.517,0.301,0.540,0.491,0.468,0.243,0.217,south-southeast,3.3,No
2015/06/14,12:20,0.520,0.299,0.551,0.488,0.466,0.244,0.215,south,3.3,No
2015/06/14,12:30,0.524,0.297,0.549,0.495,0.462,0.245,0.216,south,3.3,No
2015/06/14,12:40,0.521,0.301,0.545,0.494,0.471,0.243,0.217,south,2.9,No
2015/06/14,12:50,0.516,0.302,0.547,0.489,0.472,0.245,0.215,south,2.8,No
2015/06/14,13:00,0.525,0.301,0.555,0.492,0.468,0.244,0.215,south,1.5,No
2015/06/14,13:10,0.523,0.297,0.548,0.499,0.464,0.244,0.218,southwest,1.5,No
2015/06/14,13:20,0.519,0.299,0.544,0.493,0.461,0.242,0.218,south-southwest,2.2,No
2015/06/14,13:30,0.518,0.303,0.548,0.490,0.467,0.245,0.215,south,2.2,No
2015/06/14,13:40,0.527,0.302,0.550,0.489,0.471,0.245,0.216,south-southwest,1.6,No
2015/06/14,13:50,0.523,0.299,0.551,0.498,0.471,0.246,0.217,south-southwest,1.7,No
2015/06/14,14:00,0.518,0.299,0.546,0.496,0.467,0.244,0.217,south-southwest,2.6,No
2015/06/14,14:10,0.515,0.299,0.544,0.494,0.466,0.245,0.216,south,2.0,No
2015/06/14,14:20,0.521,0.298,0.543,0.489,0.467,0.245,0.215,south-southeast,3.1,No
2015/06/14,14:30,0.522,0.299,0.543,0.488,0.464,0.244,0.216,south-southeast,3.3,No
2015/06/14,14:40,0.522,0.303,0.555,0.489,0.463,0.245,0.217,south-southeast,3.8,No
2015/06/14,14:50,0.516,0.302,0.552,0.497,0.472,0.244,0.217,south-southeast,4.7,No
2015/06/14,15:00,0.525,0.299,0.547,0.494,0.473,0.245,0.216,south,5.3,No
2015/06/14,15:10,0.524,0.303,0.552,0.494,0.469,0.244,0.217,south,5.7,No
2015/06/14,15:20,0.520,0.303,0.554,0.498,0.469,0.245,0.217,south,5.6,No
2015/06/14,15:30,0.525,0.300,0.547,0.494,0.472,0.245,0.216,south-southwest,4.7,No
2015/06/14,15:40,0.525,0.302,0.549,0.489,0.468,0.245,0.218,south,5.4,No
2015/06/14,15:50,0.518,0.304,0.552,0.498,0.465,0.244,0.217,south,8.6,No
2015/06/14,16:00,0.520,0.301,0.547,0.496,0.465,0.245,0.216,south,8.5,No
2015/06/14,16:10,0.524,0.299,0.543,0.490,0.471,0.244,0.217,south,9.1,No
2015/06/14,16:20,0.521,0.302,0.554,0.493,0.469,0.245,0.218,south,7.2,No
2015/06/14,16:30,0.519,0.304,0.550,0.498,0.466,0.244,0.216,south-southwest,7.1,No
2015/06/14,16:40,0.527,0.301,0.545,0.491,0.470,0.244,0.218,south-southwest,6.4,No
2015/06/14,16:50,0.523,0.301,0.548,0.490,0.472,0.244,0.217,south-southwest,6.7,No
2015/06/14,17:00,0.519,0.303,0.552,0.498,0.470,0.246,0.215,south,7.4,No
2015/06/14,17:10,0.520,0.301,0.547,0.496,0.464,0.244,0.217,south-southwest,8.1,No
2015/06/14,17:20,0.526,0.299,0.546,0.491,0.465,0.243,0.217,south,7.8,No
2015/06/14,17:30,0.524,0.304,0.557,0.494,0.473,0.245,0.217,south,8.6,No
2015/06/14,17:40,0.519,0.304,0.551,0.497,0.470,0.245,0.219,south,9.4,No
2015/06/14,17:50,0.527,0.301,0.546,0.490,0.467,0.245,0.217,south,8.1,No
2015/06/14,18:00,0.522,0.304,0.553,0.497,0.475,0.246,0.217,south-southwest,7.7,No
2015/06/14,18:10,0.520,0.302,0.549,0.496,0.470,0.245,0.218,south,6.5,No
2015/06/14,18:20,0.527,0.301,0.546,0.489,0.466,0.244,0.217,south,6.9,No
2015/06/14,18:30,0.523,0.303,0.552,0.496,0.473,0.245,0.219,south-southwest,7.5,No
2015/06/14,18:40,0.520,0.301,0.551,0.495,0.471,0.244,0.217,south-southwest,7.9,No
2015/06/14,18:50,0.525,0.301,0.546,0.490,0.465,0.245,0.218,south,8.0,No
2015/06/14,19:00,0.520,0.303,0.552,0.498,0.474,0.245,0.217,south,7.2,No
2015/06/14,19:10,0.523,0.300,0.551,0.496,0.469,0.244,0.218,south,7.5,No
2015/06/14,19:20,0.526,0.304,0.547,0.493,0.469,0.245,0.218,south,8.1,No
2015/06/14,19:30,0.521,0.302,0.555,0.496,0.473,0.246,0.217,south,7.3,No
2015/06/14,19:40,0.527,0.301,0.549,0.494,0.465,0.244,0.218,south-southwest,6.2,No
2015/06/14,19:50,0.523,0.302,0.550,0.494,0.473,0.246,0.218,south-southwest,5.9,No
2015/06/14,20:00,0.522,0.300,0.555,0.496,0.468,0.244,0.218,south,5.4,No
2015/06/14,20:10,0.526,0.303,0.546,0.491,0.468,0.246,0.219,south-southwest,5.6,No
2015/06/14,20:20,0.521,0.299,0.553,0.497,0.472,0.244,0.217,south,6.7,No
2015/06/14,20:30,0.525,0.302,0.550,0.493,0.467,0.245,0.219,south,7.5,No
2015/06/14,20:40,0.524,0.301,0.546,0.493,0.472,0.245,0.216,south,6.3,No
2015/06/14,20:50,0.521,0.300,0.552,0.497,0.468,0.244,0.218,south,6.2,No
2015/06/14,21:00,0.525,0.303,0.547,0.492,0.470,0.246,0.217,south,7.5,No
2015/06/14,21:10,0.520,0.300,0.551,0.499,0.471,0.244,0.218,south,7.2,No
2015/06/14,21:20,0.525,0.304,0.551,0.494,0.467,0.245,0.217,south-southwest,8.2,No
2015/06/14,21:30,0.524,0.300,0.548,0.496,0.473,0.246,0.218,south-southwest,7.6,No
2015/06/14,21:40,0.521,0.303,0.552,0.496,0.465,0.244,0.217,south,7.7,No
2015/06/14,21:50,0.525,0.302,0.547,0.493,0.472,0.247,0.218,south,7.3,No
2015/06/14,22:00,0.518,0.301,0.551,0.497,0.468,0.244,0.218,south-southwest,6.6,No
2015/06/14,22:10,0.525,0.302,0.553,0.492,0.469,0.245,0.218,south-southwest,6.4,No
2015/06/14,22:20,0.525,0.301,0.547,0.495,0.471,0.244,0.218,south-southwest,6.0,No
2015/06/14,22:30,0.520,0.304,0.554,0.493,0.467,0.244,0.217,south-southwest,5.5,No
2015/06/14,22:40,0.527,0.301,0.548,0.493,0.471,0.246,0.218,south-southwest,4.9,No
2015/06/14,22:50,0.520,0.303,0.552,0.497,0.469,0.244,0.217,south-southwest,4.2,No
2015/06/14,23:00,0.525,0.302,0.551,0.493,0.472,0.245,0.218,south-southwest,3.6,No
2015/06/14,23:10,0.523,0.302,0.548,0.497,0.469,0.245,0.217,south-southwest,3.9,No
2015/06/14,23:20,0.522,0.303,0.557,0.494,0.469,0.245,0.218,west-southwest,1.9,No
2015/06/14,23:30,0.525,0.301,0.548,0.494,0.470,0.246,0.217,northwest,0.5,No
2015/06/14,23:40,0.520,0.304,0.550,0.497,0.467,0.245,0.217,north,0.5,No
2015/06/14,23:50,0.526,0.302,0.553,0.493,0.473,0.247,0.218,north,1.0,No
